#timestamp,LO_Frequency,Hit,StdDev 
1515546015.7,286047003.9,N
1515546035.5,286047003.2,N
1515546055.4,286047004.2,N
1515546075.2,286047001.5,N
1515546095.0,286047001.5,N
1515546095.9,286047001.5,N
1515546115.8,286047001.7,N
1515546135.6,286047003.9,N
1515546155.5,286047001.3,N
1515546175.3,286047003.7,N
1515546195.1,286047003.2,N
1515546215.9,286047003.5,N
1515546235.7,286047003.6,N
1515546255.5,286047003.6,N
1515546275.4,286047004.3,N
1515546295.2,286047004.0,N
1515546315.1,286047001.3,N
1515546316.0,286047001.3,N
1515546335.8,286047001.6,N
1515546355.6,286047002.4,N
1515546375.5,286047002.0,N
1515546395.3,286047001.4,N
1515546415.1,286046999.7,N
1515546435.9,286047002.7,N
1515546455.7,286047002.7,N
1515546475.6,286046998.2,N
1515546495.4,286047001.1,N
1515546515.2,286046998.1,N
1515546535.1,286047001.1,N
1515546536.0,286047001.1,N
1515546555.8,286047000.5,N
1515546575.6,286047000.6,N
1515546595.5,286047001.2,N
1515546615.3,286046999.2,N
1515546635.2,286046997.4,N
1515546655.9,286046997.2,N
1515546675.7,286046994.9,N
1515546695.6,286046997.7,N
1515546715.4,286046999.2,N
1515546735.2,286046997.9,N
1515546755.1,286046995.3,N
1515546756.0,286046995.3,N
1515546775.8,286046995.3,N
1515546795.7,286046993.3,N
1515546815.5,286046997.4,N
1515546835.3,286046996.6,N
1515546855.2,286046998.2,N
1515546875.0,286047000.9,N
1515546875.9,286047000.9,N
1515546895.8,286046999.5,N
1515546915.6,286046996.6,N
1515546935.4,286046998.9,N
1515546955.3,286046998.8,N
1515546975.1,286046998.1,N
1515546995.8,286046998.7,N
1515547015.7,286046998.2,N
1515547035.5,286047001.2,N
1515547055.4,286046996.5,N
1515547075.2,286046996.7,N
1515547095.0,286046996.5,N
1515547095.9,286046996.5,N
1515547115.8,286046996.8,N
1515547165.6,286046993.4,E
1515547175.6,286046997.4,N
1515547195.4,286047002.8,P
1515547215.2,286046999.7,N
1515547235.1,286047002.1,N
1515547236.0,286047002.1,N
1515547255.8,286047004.0,N
1515547275.6,286047003.9,N
1515547295.5,286047003.0,N
1515547315.3,286047005.6,N
1515547335.2,286047003.6,N
1515547355.9,286047004.2,N
1515547375.7,286047004.8,N
1515547395.6,286047006.8,Y
1515547415.4,286047003.7,P
1515547435.3,286047004.0,P
1515547455.1,286047002.3,P
1515547456.0,286047002.3,Y
1515547475.8,286046996.5,P
1515547495.7,286046996.9,N
1515547515.5,286046997.8,N
1515547535.4,286046997.4,N
1515547555.2,286046995.7,N
1515547575.0,286046993.3,N
1515547575.9,286046993.3,N
1515547595.8,286046996.0,N
1515547615.6,286046995.7,N
1515547635.4,286046993.8,N
1515547655.3,286046993.5,N
1515547675.1,286046993.8,N
1515547695.9,286046994.2,N
1515547715.7,286046993.5,N
1515547735.5,286046995.6,N
1515547755.4,286046995.1,N
1515547775.2,286046995.5,N
1515547795.0,286046994.9,N
1515547795.9,286046994.9,N
1515547815.8,286046995.6,N
1515547835.6,286046993.5,Y
1515547855.5,286046998.4,P
1515547875.3,286046996.8,N
1515547895.1,286046999.2,N
1515547915.9,286046997.9,N
1515547935.7,286046999.6,N
1515547955.6,286046997.3,N
1515547975.4,286046997.6,N
1515547995.2,286046997.4,N
1515548015.1,286046997.6,N
1515548016.0,286046997.6,N
1515548035.8,286046996.7,Y
1515548055.6,286046999.7,P
1515548075.5,286047002.8,N
1515548095.3,286046999.7,N
1515548115.2,286047000.8,N
1515548135.9,286047000.2,N
1515548155.7,286047002.6,N
1515548175.6,286046999.7,N
1515548195.4,286047000.2,N
1515548215.2,286047000.1,N
1515548235.1,286047002.8,N
1515548236.0,286047002.8,N
1515548255.8,286047002.4,N
1515548275.7,286047003.6,N
1515548295.5,286047004.7,N
1515548315.3,286047008.7,Y
1515548335.2,286047007.2,P
1515548355.0,286047006.1,N
1515548355.9,286047006.1,N
1515548375.8,286047006.9,Y
1515548395.6,286047001.7,P
1515548415.4,286047002.6,N
1515548435.3,286047000.1,N
1515548455.1,286047001.4,N
1515548475.9,286047002.7,N
1515548495.7,286047001.0,N
1515548515.5,286047000.4,N
1515548535.4,286047000.5,N
1515548555.2,286047000.4,N
1515548575.0,286047001.6,N
1515548575.9,286047001.6,N
1515548595.8,286047004.3,Y
1515548615.6,286047001.1,P
1515548635.5,286047002.8,P
1515548655.3,286047001.6,N
1515548675.1,286047001.8,N
1515548695.9,286047002.6,Y
1515548715.7,286046998.6,P
1515548735.5,286046996.9,N
1515548755.4,286046997.3,N
1515548775.2,286046999.5,N
1515548795.1,286046997.1,N
1515548796.0,286046997.1,N
1515548815.8,286046997.7,N
1515548835.6,286046997.8,N
1515548855.5,286046997.8,N
1515548875.3,286046995.1,Y
1515548895.2,286046996.5,P
1515548915.9,286046998.9,N
1515548935.7,286046999.0,N
1515548955.6,286046998.3,N
1515548975.4,286046998.2,N
1515548995.2,286046998.5,N
1515549015.1,286047000.0,N
1515549016.0,286047000.0,N
1515549035.8,286047000.2,N
1515549055.7,286047002.0,N
1515549075.5,286047003.6,N
1515549095.3,286047001.6,N
1515549115.2,286047001.6,N
1515549135.0,286047001.3,N
1515549135.9,286047001.3,N
1515549155.8,286047001.5,N
1515549175.6,286047002.3,N
1515549195.4,286047002.1,N
1515549215.3,286047001.8,N
1515549235.1,286047002.4,N
1515549255.8,286047002.1,N
1515549275.7,286047002.7,N
1515549295.5,286047001.4,N
1515549315.4,286047001.7,N
1515549335.2,286047003.6,N
1515549355.0,286047001.7,N
1515549355.9,286047001.7,N
1515549375.8,286047003.7,N
1515549395.6,286047006.0,Y
1515549415.5,286047003.9,P
1515549435.3,286047001.5,N
1515549455.1,286047002.1,N
1515549475.9,286047002.6,N
1515549495.7,286047002.1,N
1515549515.5,286047004.0,Y
1515549535.4,286047002.4,P
1515549555.2,286047000.1,N
1515549575.1,286047000.7,N
1515549576.0,286047000.7,N
1515549595.8,286047001.2,N
